Coolangatta Observation History
Time Wind Speed Temp Pressure Rel. Hum Rain
19/07:00pm SSW 6-8 kts 16.0°c 1020.1 hPa 72% 0.0mm
19/06:30pm SSW 7-10 kts 16.3°c 1019.7 hPa 71% 0.0mm
19/06:00pm SSW 7-10 kts 16.3°c 1019.4 hPa 71% 0.0mm
19/05:30pm S 7-11 kts 16.4°c 1019.0 hPa 72% 0.0mm
19/05:00pm S 8-12 kts 17.1°c 1018.6 hPa 70% 0.0mm
19/04:30pm S 11-15 kts 17.9°c 1018.4 hPa 68% 0.0mm
19/04:00pm SSE 12-19 kts 18.3°c 1018.0 hPa 67% 0.0mm
19/03:30pm SSE 12-19 kts 19.8°c 1017.7 hPa 65% 0.0mm
19/03:00pm SE 14-19 kts 20.2°c 1017.2 hPa 64% 0.0mm
19/02:30pm SSE 11-16 kts 21.7°c 1017.2 hPa 59% 0.0mm
19/02:00pm SE 12-15 kts 20.9°c 1017.1 hPa 58% 0.0mm
19/01:30pm S 7-11 kts 22.1°c 1016.9 hPa 56% 0.0mm
19/01:00pm SSE 10-13 kts 21.7°c 1017.0 hPa 56% 0.0mm
19/12:30pm SSE 9-13 kts 21.9°c 1017.1 hPa 58% 0.0mm
19/12:00pm S 8-11 kts 21.4°c 1017.6 hPa 59% 0.0mm
19/11:30am S 8-11 kts 21.0°c 1018.1 hPa 59% 0.0mm
19/11:00am S 7-9 kts 20.6°c 1018.6 hPa 61% 0.0mm
19/10:30am S 6-9 kts 20.4°c 1018.8 hPa 59% 0.0mm
19/10:00am S 8-12 kts 20.1°c 1018.7 hPa 58% 0.0mm
19/09:30am SSW 7-9 kts 19.3°c 1018.6 hPa 61% 0.0mm
19/09:00am S 8-10 kts 17.3°c 1018.6 hPa 69% 0.0mm
19/08:30am SSE 7-9 kts 15.1°c 1018.4 hPa 85% 0.0mm
19/08:00am S 3-6 kts 14.1°c 1018.1 hPa 99% 0.0mm
19/07:30am SW 2-4 kts 12.8°c 1017.7 hPa 99% 0.0mm
19/07:00am CALM 0 kts 11.6°c 1017.3 hPa 99% 0.0mm
19/06:30am CALM 0 kts 11.2°c 1017.1 hPa 99% 0.0mm
19/06:00am CALM 0 kts 11.4°c 1016.6 hPa 99% 0.0mm
19/05:32am SW 3 kts 10.7°c 1016.3 hPa 99% 0.0mm
19/05:30am SW 3 kts 10.8°c 1016.3 hPa 99% 0.0mm
19/05:00am SW 3-4 kts 10.1°c 1016.1 hPa 98% 0.0mm
19/04:30am CALM 0 kts 10.9°c 1016.0 hPa 99% 0.0mm
19/04:10am CALM 0 kts 11.1°c 1016.0 hPa 98% 0.0mm
19/04:00am CALM 0 kts 10.6°c 1015.9 hPa 97% 0.0mm
19/03:45am CALM 0 kts 10.6°c 1016.0 hPa 96% 0.0mm
19/03:30am CALM 0 kts 11.0°c 1016.0 hPa 96% 0.0mm
19/03:00am WSW 1-4 kts 11.9°c 1016.2 hPa 98% 0.0mm
19/02:30am SW 4-5 kts 11.8°c 1016.4 hPa 97% 0.0mm
19/02:00am CALM 0 kts 12.1°c 1016.5 hPa 96% 0.0mm
19/01:30am SW 3-4 kts 12.7°c 1016.7 hPa 96% 0.0mm
19/01:00am WSW 3-5 kts 12.6°c 1016.7 hPa 95% 0.0mm
19/12:30am SSW 3-4 kts 12.6°c 1016.7 hPa 94% 0.0mm
19/12:00am SW 3-4 kts 12.7°c 1016.9 hPa 93% 0.0mm
Time Wind Speed Temp Pressure Rel. Hum Rain
18/11:30pm SSW 4-5 kts 13.3°c 1017.0 hPa 91% 0.0mm
18/11:00pm SW 5-7 kts 13.6°c 1017.1 hPa 93% 0.0mm
18/10:30pm SSW 1-3 kts 13.8°c 1017.3 hPa 89% 0.0mm
18/10:00pm SW 2-4 kts 14.6°c 1017.3 hPa 90% 0.0mm
18/09:30pm CALM 0 kts 14.7°c 1017.3 hPa 88% 0.0mm
18/09:00pm SW 5 kts 15.0°c 1017.2 hPa 89% 0.0mm
18/08:30pm WSW 4-5 kts 14.9°c 1017.2 hPa 88% 0.0mm
18/08:00pm SSE 4-6 kts 15.7°c 1017.2 hPa 83% 0.0mm
18/07:30pm WSW 4-5 kts 16.9°c 1017.0 hPa 77% 0.0mm
18/07:00pm SW 5-8 kts 17.6°c 1016.8 hPa 75% 0.0mm
18/06:30pm S 5-6 kts 17.1°c 1016.6 hPa 77% 0.0mm
18/06:00pm SSE 7-9 kts 17.3°c 1016.5 hPa 76% 0.0mm
18/05:30pm SSE 5-6 kts 18.3°c 1016.1 hPa 72% 0.0mm
18/05:00pm S 5-6 kts 18.6°c 1015.6 hPa 70% 0.0mm
18/04:30pm SSW 6-8 kts 19.8°c 1015.2 hPa 64% 0.0mm
18/04:00pm SSW 6-9 kts 20.7°c 1015.2 hPa 61% 0.0mm
18/03:30pm S 9-12 kts 21.1°c 1015.1 hPa 59% 0.0mm
18/03:00pm S 9-12 kts 21.6°c 1015.0 hPa 58% 0.0mm
18/02:30pm S 10-14 kts 21.6°c 1015.0 hPa 55% 0.0mm
18/02:00pm S 9-12 kts 21.7°c 1015.3 hPa 55% 0.0mm
18/01:30pm SSW 7-11 kts 22.2°c 1015.5 hPa 55% 0.0mm
18/01:00pm S 8-10 kts 21.3°c 1015.8 hPa 59% 0.0mm
18/12:30pm SSW 7-11 kts 22.0°c 1016.1 hPa 54% 0.0mm
18/12:00pm SSW 7-11 kts 21.9°c 1016.5 hPa 56% 0.0mm
18/11:30am SSW 7-11 kts 20.9°c 1016.9 hPa 55% 0.0mm
18/11:00am SSW 5-8 kts 20.4°c 1017.3 hPa 58% 0.0mm
18/10:30am SW 3-5 kts 19.7°c 1017.7 hPa 59% 0.0mm
18/10:00am SSW 3-5 kts 18.9°c 1017.8 hPa 63% 0.0mm
18/09:30am W 3-5 kts 17.2°c 1017.9 hPa 67% 0.0mm
18/09:00am CALM 0 kts 15.3°c 1018.0 hPa 75% 0.2mm
18/08:30am W 4-5 kts 13.9°c 1018.0 hPa 80% 0.2mm
18/08:00am S 1-4 kts 12.3°c 1017.8 hPa 87% 0.2mm
18/07:30am S 2-4 kts 11.2°c 1017.6 hPa 95% 0.2mm
18/07:00am SW 5-7 kts 9.2°c 1017.4 hPa 95% 0.2mm
18/06:30am CALM 0 kts 7.8°c 1017.3 hPa 95% 0.2mm
18/06:00am SW 3-4 kts 8.3°c 1017.0 hPa 97% 0.2mm
18/05:30am SW 4-5 kts 8.2°c 1016.6 hPa 97% 0.2mm
18/05:00am CALM 0-2 kts 6.8°c 1016.3 hPa 93% 0.2mm
18/04:30am SW 1-4 kts 7.1°c 1016.2 hPa 91% 0.2mm
18/04:00am SW 1-3 kts 7.9°c 1016.1 hPa 89% 0.2mm
18/03:30am SW 4-6 kts 8.5°c 1016.1 hPa 94% 0.2mm
18/03:00am SW 4-5 kts 8.8°c 1016.0 hPa 95% 0.2mm
18/02:30am CALM 0 kts 8.0°c 1016.1 hPa 93% 0.2mm
18/02:00am SW 1-3 kts 9.0°c 1016.3 hPa 94% 0.2mm
18/01:30am CALM 0-3 kts 8.9°c 1016.6 hPa 92% 0.2mm
18/01:00am CALM 0 kts 7.8°c 1016.7 hPa 89% 0.2mm
18/12:30am SW 4-5 kts 9.4°c 1016.7 hPa 90% 0.2mm
18/12:00am SW 2-4 kts 10.1°c 1016.9 hPa 90% 0.2mm
Time Wind Speed Temp Pressure Rel. Hum Rain
17/11:30pm SW 3-5 kts 10.4°c 1017.0 hPa 90% 0.2mm
17/11:00pm SW 1-4 kts 10.2°c 1017.1 hPa 88% 0.2mm
17/10:30pm SW 3-4 kts 10.9°c 1017.2 hPa 87% 0.2mm
17/10:00pm SW 4-5 kts 10.6°c 1017.4 hPa 86% 0.2mm
17/09:30pm SW 1-3 kts 11.0°c 1017.4 hPa 86% 0.2mm
17/09:00pm WSW 3-5 kts 11.1°c 1017.3 hPa 87% 0.2mm
17/08:30pm CALM 0 kts 11.6°c 1017.3 hPa 82% 0.2mm
17/08:00pm CALM 0-3 kts 12.3°c 1017.2 hPa 82% 0.2mm
17/07:30pm SW 6-7 kts 13.4°c 1017.0 hPa 73% 0.2mm
17/07:00pm WSW 9-10 kts 13.0°c 1016.6 hPa 78% 0.2mm
17/06:30pm WSW 4-6 kts 13.0°c 1016.4 hPa 75% 0.2mm
17/06:00pm SSW 3-4 kts 12.3°c 1015.9 hPa 76% 0.2mm
17/05:30pm S 5-6 kts 15.8°c 1015.5 hPa 62% 0.2mm
17/05:00pm S 7-9 kts 16.3°c 1015.3 hPa 54% 0.2mm
17/04:30pm S 9-12 kts 18.2°c 1015.0 hPa 48% 0.2mm
17/04:00pm S 8-12 kts 19.5°c 1014.9 hPa 41% 0.2mm
17/03:30pm S 9-14 kts 20.2°c 1014.6 hPa 36% 0.2mm
17/03:00pm S 7-9 kts 20.8°c 1014.4 hPa 36% 0.2mm
17/02:30pm SSE 7-11 kts 20.9°c 1014.5 hPa 36% 0.2mm
17/02:00pm SSE 7-10 kts 20.6°c 1014.5 hPa 35% 0.2mm
17/01:30pm S 10-15 kts 21.2°c 1014.6 hPa 38% 0.2mm
17/01:00pm S 12-16 kts 21.0°c 1014.8 hPa 39% 0.2mm
17/12:30pm SSE 10-14 kts 20.9°c 1015.0 hPa 36% 0.2mm
17/12:00pm S 10-14 kts 20.5°c 1015.3 hPa 36% 0.2mm
17/11:30am S 9-13 kts 20.9°c 1015.6 hPa 35% 0.2mm
17/11:00am S 8-11 kts 20.8°c 1015.7 hPa 35% 0.2mm
17/10:30am NW 5-7 kts 20.8°c 1016.0 hPa 44% 0.0mm
17/10:00am NNW 6-8 kts 20.3°c 1016.0 hPa 43% 0.0mm
17/09:30am NW 4-7 kts 19.6°c 1016.5 hPa 51% 0.0mm
17/09:00am WNW 5-6 kts 18.9°c 1016.7 hPa 58% 7.8mm
17/08:30am NW 1-4 kts 17.3°c 1016.5 hPa 72% 7.8mm
17/08:00am NW 2-5 kts 16.0°c 1016.4 hPa 88% 7.8mm
17/07:30am WSW 6-8 kts 15.2°c 1016.0 hPa 93% 7.8mm
17/07:03am WSW 4-6 kts 14.6°c 1015.8 hPa 99% 7.8mm
17/07:00am SW 3-6 kts 14.6°c 1015.8 hPa 99% 7.8mm
17/06:34am SW 1-3 kts 14.9°c 1015.8 hPa 99% 7.8mm
17/06:30am SW 1-4 kts 15.4°c 1015.7 hPa 99% 7.8mm
17/06:23am SW 3-4 kts 15.3°c 1015.7 hPa 99% 7.8mm
17/06:00am W 1-3 kts 14.8°c 1015.4 hPa 99% 7.8mm
17/05:55am CALM 0-3 kts 15.0°c 1015.3 hPa 99% 7.8mm
17/05:38am WSW 4-6 kts 15.3°c 1015.3 hPa 99% 7.8mm
17/05:30am SW 2-5 kts 15.2°c 1015.1 hPa 99% 7.8mm
17/05:20am CALM 0 kts 15.6°c 1014.9 hPa 99% 7.8mm
17/05:00am SSW 2-4 kts 16.0°c 1014.9 hPa 99% 7.8mm
17/04:30am SSW 1-3 kts 16.0°c 1014.9 hPa 99% 7.8mm
17/04:00am SSW 2-6 kts 16.2°c 1014.8 hPa 99% 7.8mm
17/03:30am SW 5-7 kts 16.2°c 1014.8 hPa 99% 7.8mm
17/03:00am W 3-4 kts 15.9°c 1014.7 hPa 99% 7.6mm
17/02:30am WSW 4-6 kts 16.1°c 1015.2 hPa 99% 7.6mm
17/02:00am W 4-5 kts 15.9°c 1015.2 hPa 99% 7.6mm
17/01:30am CALM 0 kts 15.8°c 1015.5 hPa 98% 7.6mm
17/01:00am WSW 5-6 kts 16.3°c 1015.8 hPa 99% 7.6mm
17/12:30am SW 4-6 kts 16.5°c 1015.7 hPa 97% 7.6mm
17/12:00am E 5-6 kts 16.8°c 1016.3 hPa 94% 7.4mm